Weather History for Lewisburg, WV

Change the Weather History Date:

Monday, June 17, 2013

  Actual Average Record
Temperature  
Mean Temperature 68 °F 67 °F  
Max Temperature 78 °F 79 °F 90 °F (1957)
Min Temperature 59 °F 55 °F 37 °F (1961)
Degree Days  
Heating Degree Days 0    
Month to date heating degree days  
Since 1 June heating degree days  
Since 1 July heating degree days  
Cooling Degree Days 4    
Month to date cooling degree days  
Year to date cooling degree days  
Since 1 June cooling degree days  
Growing Degree Days 18 (Base 50)    
Moisture  
Dew Point 57 °F    
Average Humidity 73    
Maximum Humidity 94    
Minimum Humidity 42    
Precipitation  
Precipitation 0.01 in 0.13 in 0.23 in (2012)
Month to date precipitation 2.16  
Year to date precipitation 19.34  
Snow  
Snow 0.00 in - - ()
Month to date snowfall  
Since 1 June snowfall  
Since 1 July snowfall  
Snow Depth -    
Sea Level Pressure  
Sea Level Pressure 30.07 in    
Wind  
Wind Speed 2 mph (WSW)    
Max Wind Speed 9 mph    
Max Gust Speed -    
Visibility 8 miles    
Events      
T = Trace of Precipitation, MM = Missing Value Source: NWS Daily Summary

Daily Weather History Graph

Daily Weather History Graph

Search for Another Location

Airport:

Trip Planner

Search our weather history database for the weather conditions in past years. The results will help you decide how hot, cold, wet, or windy it might be!

Date:

Astronomy

Jun. 17, 2013 Rise Set
Actual Time 5:59 AM EDT 8:46 PM EDT
Civil Twilight 5:27 AM EDT 9:17 PM EDT
Nautical Twilight 4:48 AM EDT 9:56 PM EDT
Astronomical Twilight 4:03 AM EDT 10:41 PM EDT
Moon 2:28 PM EDT (6/17) 1:28 AM EDT (6/17)
Length of Visible Light 15h 49m
Length of Day
14h 47m
First Quarter, 60% of the Moon is Illuminated
Jun 17
First Quarter
Jun 23
Full
Jun 30
Last Quarter
Jul 8
New
Jul 15
First Quarter

Hourly Weather History & Observations

Time (EDT) Temp. Dew Point Humidity Pressure Visibility Wind Dir Wind Speed Gust Speed Precip Events Conditions
12:15 AM 60.8 °F 59.0 °F 94% 30.11 in 5.0 mi WSW 3.5 mph - N/A   Light Drizzle
12:35 AM 60.8 °F 57.2 °F 88% 30.10 in 5.0 mi SSW 4.6 mph - 0.01 in   Overcast
12:55 AM 60.8 °F 57.2 °F 88% 30.10 in 4.0 mi SSW 3.5 mph - 0.01 in   Overcast
1:15 AM 60.8 °F 59.0 °F 94% 30.11 in 7.0 mi Calm Calm - N/A   Overcast
1:35 AM 60.8 °F 57.2 °F 88% 30.10 in 7.0 mi Calm Calm - N/A   Overcast
1:55 AM 60.8 °F 57.2 °F 88% 30.10 in 7.0 mi SW 4.6 mph - N/A   Overcast
2:15 AM 60.8 °F 57.2 °F 88% 30.10 in 5.0 mi SSW 3.5 mph - N/A   Overcast
2:35 AM 59.0 °F 57.2 °F 94% 30.10 in 5.0 mi Calm Calm - N/A   Mostly Cloudy
2:55 AM 59.0 °F 55.4 °F 88% 30.10 in 5.0 mi Calm Calm - N/A   Clear
3:15 AM 59.0 °F 55.4 °F 88% 30.10 in 7.0 mi Calm Calm - N/A   Mostly Cloudy
3:35 AM 59.0 °F 55.4 °F 88% 30.10 in 5.0 mi Calm Calm - N/A   Overcast
3:55 AM 59.0 °F 55.4 °F 88% 30.10 in 5.0 mi Calm Calm - N/A   Overcast
4:15 AM 59.0 °F 55.4 °F 88% 30.10 in 1.5 mi Calm Calm - N/A   Mostly Cloudy
4:35 AM 59.0 °F 55.4 °F 88% 30.09 in 3.0 mi Calm Calm - N/A   Scattered Clouds
4:55 AM 59.0 °F 55.4 °F 88% 30.09 in 5.0 mi Calm Calm - N/A   Mostly Cloudy
5:15 AM 59.0 °F 55.4 °F 88% 30.09 in 4.0 mi Calm Calm - N/A   Overcast
5:35 AM 59.0 °F 55.4 °F 88% 30.10 in 4.0 mi SSW 3.5 mph - N/A   Mostly Cloudy
5:55 AM 59.0 °F 55.4 °F 88% 30.10 in 3.0 mi Calm Calm - N/A   Mostly Cloudy
6:15 AM 59.0 °F 55.4 °F 88% 30.09 in 4.0 mi Calm Calm - N/A   Overcast
6:35 AM 59.0 °F 55.4 °F 88% 30.10 in 4.0 mi Calm Calm - N/A   Mostly Cloudy
6:55 AM 59.0 °F 55.4 °F 88% 30.10 in 5.0 mi Calm Calm - N/A   Scattered Clouds
7:15 AM 59.0 °F 55.4 °F 88% 30.09 in 3.0 mi Calm Calm - N/A   Clear
7:35 AM 59.0 °F 57.2 °F 94% 30.10 in 7.0 mi Calm Calm - N/A   Clear
7:55 AM 60.8 °F 57.2 °F 88% 30.09 in 7.0 mi Calm Calm - N/A   Clear
8:15 AM 60.8 °F 59.0 °F 94% 30.10 in 10.0 mi Calm Calm - N/A   Scattered Clouds
8:35 AM 60.8 °F 57.2 °F 88% 30.10 in 10.0 mi Calm Calm - N/A   Overcast
8:55 AM 60.8 °F 57.2 °F 88% 30.10 in 10.0 mi Calm Calm - N/A   Overcast
9:15 AM 62.6 °F 59.0 °F 88% 30.10 in 10.0 mi SSW 4.6 mph - N/A   Mostly Cloudy
9:35 AM 62.6 °F 57.2 °F 82% 30.10 in 10.0 mi Calm Calm - N/A   Mostly Cloudy
9:55 AM 64.4 °F 57.2 °F 77% 30.10 in 10.0 mi SW 3.5 mph - N/A   Scattered Clouds
10:15 AM 64.4 °F 57.2 °F 77% 30.10 in 10.0 mi SW 5.8 mph - N/A   Scattered Clouds
10:35 AM 68.0 °F 59.0 °F 73% 30.10 in 10.0 mi WSW 3.5 mph - N/A   Scattered Clouds
10:55 AM 68.0 °F 59.0 °F 73% 30.09 in 10.0 mi SSW 4.6 mph - N/A   Clear
11:15 AM 69.8 °F 57.2 °F 64% 30.10 in 10.0 mi West 8.1 mph - N/A   Scattered Clouds
11:35 AM 69.8 °F 57.2 °F 64% 30.10 in 10.0 mi WNW 6.9 mph - N/A   Scattered Clouds
11:55 AM 69.8 °F 57.2 °F 64% 30.09 in 10.0 mi WSW 3.5 mph - N/A   Scattered Clouds
12:15 PM 71.6 °F 57.2 °F 60% 30.09 in 10.0 mi WSW 4.6 mph - N/A   Mostly Cloudy
12:35 PM 73.4 °F 57.2 °F 57% 30.09 in 10.0 mi SW 5.8 mph - N/A   Mostly Cloudy
12:55 PM 71.6 °F 57.2 °F 60% 30.09 in 10.0 mi SW 9.2 mph - N/A   Mostly Cloudy
1:15 PM 71.6 °F 55.4 °F 57% 30.08 in 10.0 mi WNW 4.6 mph - N/A   Mostly Cloudy
1:35 PM 71.6 °F 57.2 °F 60% 30.08 in 10.0 mi Calm Calm - N/A   Scattered Clouds
1:55 PM 73.4 °F 59.0 °F 61% 30.07 in 10.0 mi WSW 8.1 mph - N/A   Scattered Clouds
2:15 PM 73.4 °F 57.2 °F 57% 30.07 in 10.0 mi WNW 4.6 mph - N/A   Scattered Clouds
2:35 PM 77.0 °F 55.4 °F 47% 30.06 in 10.0 mi WSW 5.8 mph - N/A   Scattered Clouds
2:55 PM 75.2 °F 55.4 °F 50% 30.05 in 10.0 mi SW 4.6 mph - N/A   Scattered Clouds
3:15 PM 75.2 °F 55.4 °F 50% 30.05 in 10.0 mi NW 3.5 mph - N/A   Scattered Clouds
3:35 PM 75.2 °F 53.6 °F 47% 30.04 in 10.0 mi Calm Calm - N/A   Mostly Cloudy
3:55 PM 77.0 °F 53.6 °F 44% 30.04 in 10.0 mi West 5.8 mph - N/A   Scattered Clouds
4:15 PM 75.2 °F 53.6 °F 47% 30.03 in 10.0 mi West 4.6 mph - N/A   Mostly Cloudy
4:35 PM 78.8 °F 53.6 °F 42% 30.02 in 10.0 mi West 5.8 mph - N/A   Scattered Clouds
4:55 PM 77.0 °F 53.6 °F 44% 30.02 in 10.0 mi West 6.9 mph - N/A   Clear
5:15 PM 77.0 °F 55.4 °F 47% 30.01 in 10.0 mi WSW 5.8 mph - N/A   Clear
5:35 PM 77.0 °F 55.4 °F 47% 30.01 in 10.0 mi SW 4.6 mph - N/A   Scattered Clouds
5:55 PM 75.2 °F 55.4 °F 50% 30.00 in 10.0 mi WSW 4.6 mph - N/A   Scattered Clouds
6:15 PM 77.0 °F 55.4 °F 47% 30.00 in 10.0 mi SW 4.6 mph - N/A   Scattered Clouds
6:35 PM 75.2 °F 53.6 °F 47% 30.01 in 7.0 mi West 3.5 mph - N/A   Scattered Clouds
6:55 PM 73.4 °F 57.2 °F 57% 30.00 in 10.0 mi WSW 3.5 mph - N/A   Mostly Cloudy
7:15 PM 73.4 °F 57.2 °F 57% 30.02 in 10.0 mi Calm Calm - N/A   Overcast
7:35 PM 71.6 °F 57.2 °F 60% 30.02 in 10.0 mi East 4.6 mph - N/A   Overcast
7:55 PM 69.8 °F 57.2 °F 64% 30.01 in 10.0 mi Calm Calm - N/A   Scattered Clouds
8:15 PM 69.8 °F 55.4 °F 60% 30.02 in 10.0 mi Calm Calm - N/A   Mostly Cloudy
8:35 PM 69.8 °F 59.0 °F 68% 30.02 in 10.0 mi Calm Calm - N/A   Mostly Cloudy
8:55 PM 68.0 °F 57.2 °F 68% 30.02 in 10.0 mi Calm Calm - N/A   Scattered Clouds
9:15 PM 68.0 °F 57.2 °F 68% 30.02 in 10.0 mi Calm Calm - N/A   Scattered Clouds
9:35 PM 69.8 °F 57.2 °F 64% 30.02 in 10.0 mi Calm Calm - N/A   Clear
9:55 PM 68.0 °F 59.0 °F 73% 30.02 in 10.0 mi North 3.5 mph - N/A   Clear
10:15 PM 64.4 °F 59.0 °F 83% 30.03 in 10.0 mi ENE 3.5 mph - N/A   Clear
10:35 PM 64.4 °F 59.0 °F 83% 30.04 in 10.0 mi Calm Calm - N/A   Scattered Clouds
10:55 PM 64.4 °F 59.0 °F 83% 30.04 in 10.0 mi Calm Calm - N/A   Mostly Cloudy
11:15 PM 64.4 °F 59.0 °F 83% 30.04 in 10.0 mi Calm Calm - N/A   Overcast
11:35 PM 64.4 °F 59.0 °F 83% 30.03 in 10.0 mi Calm Calm - N/A   Scattered Clouds
11:55 PM 64.4 °F 59.0 °F 83% 30.04 in 10.0 mi Calm Calm - N/A   Mostly Cloudy